Regional Weather Roundup
Issued by NWS Boston, MA

Home | Current Version | Previous Version | Text Only | Print | Product List | Glossary On
Versions: 1 2 3 4 5 6 7 8 9 10 11 12 13 14 15 16 17 18 19 20 21 22 23 24 25 26 27 28 29 30 31 32 33 34 35 36 37 38 39 40 41 42 43 44 45 46 47 48 49 50
000
ASUS41 KBOX 251510
RWRBOX

REGIONAL WEATHER ROUNDUP
NATIONAL WEATHER SERVICE TAUNTON MA
1100 AM EDT SAT APR 25 2015

NOTE:  "FAIR" INDICATES FEW OR NO CLOUDS BELOW 12,000 FEET WITH NO
SIGNIFICANT WEATHER AND/OR OBSTRUCTIONS TO VISIBILITY.  THE FOLLOWING
OBSERVATION LOCATIONS DO NOT REPORT PRESENT WEATHER...PROVINCETOWN...
SMITHFIELD...BLOCK ISLAND...KEENE...AND OXFORD.

MAZALL-251600-
EASTERN MASSACHUSETTS

CITY           SKY/WX    TMP DP  RH WIND       PRES   REMARKS
BOSTON         MOSUNNY   48  25  40 NW12G21   29.74F
BEVERLY        MOSUNNY   48  25  40 NW17G26   29.73F
LAWRENCE       PTSUNNY   47  26  44 NW13G20   29.75F
BEDFORD        MOSUNNY   49  24  37 W12       29.73F
BLUE HILL        N/A     46  24  42 W14G22    29.71F
NORWOOD        SUNNY     49  24  37 NW15      29.75F
MARSHFIELD     SUNNY     48  28  46 CALM      29.75F
PLYMOUTH       SUNNY     47  25  42 W13G24    29.74F
TAUNTON        SUNNY     48  24  39 W7        29.75F
NEW BEDFORD    SUNNY     48  25  40 W10       29.75F
$$

MAZALL-251600-
CAPE COD AND THE ISLANDS

CITY           SKY/WX    TMP DP  RH WIND       PRES   REMARKS
FALMOUTH       SUNNY     46  25  42 NW9       29.75F
HYANNIS        SUNNY     46  25  43 N10G17    29.73F
CHATHAM        SUNNY     44  24  45 N10G17    29.76S
PROVINCETOWN   SUNNY    N/A N/A N/A NW13      29.75F
NANTUCKET      SUNNY     46  25  43 W10G20    29.76F
MARTHAS VNYRD  SUNNY     46  27  47 W9G20     29.76F
$$

MAZALL-251600-
CENTRAL AND WESTERN MASSACHUSETTS

CITY           SKY/WX    TMP DP  RH WIND       PRES   REMARKS
WORCESTER      SUNNY     44  22  41 NW9G20    29.74F
FITCHBURG      SUNNY     49  24  37 NW14G22   29.75F
ORANGE         MOSUNNY   46  23  40 W10       29.76F
SPRINGFIELD    SUNNY     47  24  40 W10       29.78F
WESTFIELD      SUNNY     49  23  36 NW13      29.79F
NORTH ADAMS    SUNNY     43  23  45 NW7       29.79F
PITTSFIELD     SUNNY     42  24  49 W14       29.78S
$$

RIZALL-251600-
RHODE ISLAND

CITY           SKY/WX    TMP DP  RH WIND       PRES   REMARKS
PROVIDENCE     SUNNY     49  24  37 W8G18     29.77F
NEWPORT        SUNNY     46  25  43 NW9       29.76F
BLOCK ISLAND   SUNNY     45  27  49 W12G17    29.80F
WESTERLY       SUNNY     50  25  37 VRB6      29.79F
$$

CTZALL-251600-
CONNECTICUT

CITY           SKY/WX    TMP DP  RH WIND       PRES   REMARKS
BRADLEY INTL   MOSUNNY   49  23  36 N8        29.79F
HARTFORD       SUNNY     48  24  39 W8        29.81F
BRIDGEPORT     SUNNY     49  24  37 W12G20    29.84F
DANBURY        SUNNY     46  23  40 W10G17    29.84F
GROTON         SUNNY     49  23  36 NW9       29.79F
NEW HAVEN      SUNNY     48  24  39 NW8       29.82F
CHESTER        FAIR      46  25  42 W8G16     29.80F
MERIDEN        SUNNY     50  23  34 W9G18     29.81F
WILLIMANTIC    SUNNY     46  24  42 NW10      29.79F
OXFORD         SUNNY     45  23  42 NW13G20   29.83S
$$

MEZ002-015-021-024-NHZ003-005-008-011-012-014-VTZ005-008-251600-
NORTHERN NEW ENGLAND

CITY           SKY/WX    TMP DP  RH WIND       PRES   REMARKS
PORTLAND ME    CLOUDY    48  29  47 NW16G22   29.71S
BANGOR ME      CLOUDY    42  29  59 VRB3      29.65R
CONCORD NH     MOSUNNY   48  24  39 NW12      29.73F
MANCHESTER NH  MOSUNNY   47  23  38 NW8G18    29.72F
NASHUA NH      MOSUNNY   49  24  37 W17G29    29.74F
PORTSMOUTH NH  PTSUNNY   46  24  42 W15G25    29.71F
JAFFREY NH     MOSUNNY   45  24  43 NW12G20   29.73F
KEENE NH       PTSUNNY   46  25  42 N7        29.76F
BURLINGTON VT  CLOUDY    40  23  50 VRB6      29.81F
MT. WASHINGTON SNOW      16  16 100 NW52        N/A  VSB 1/16WCI  -9
$$

NYZ052-076-251600-
EASTERN NEW YORK

CITY           SKY/WX    TMP DP  RH WIND       PRES   REMARKS
ALBANY         MOSUNNY   46  23  40 NW17      29.84F
NEW YORK CITY  PTSUNNY   48  23  37 NW14      29.87S
$$

ANZALL-251600-
MARINE OBSERVATIONS

STATION/POSITION TIME  TEMP    WIND        PRES    VSBY  WAVE
                       AIR SEA DIR/SP/G                  HT/PER
                 (UTC) (F)     (DEG/KT/KT) (MB)    (MI)  (FT/S)
BOSTON BUOY      1450   42 43  300/ 12/ 16 1007.3F         2/ 3
BUZZARDS BAY     1500          270/ 11/ 12 1008.9F
NANTUCKET SOUND  1450   41 44  270/ 12/ 16 1007.8F         2/ 4
MASS BAY-STELLWA 1404   40 42  250/  8/ 10   N/A    1 7/8  2/ 3
ISLE OF SHOALS   1500   41     320/ 14/ 16 1005.8F
S OF BLOCK IS    1408      40                N/A           4/ 5
$$

......................KEY.........................
  SKY/WX - SKY CONDITION/PRESENT WEATHER
  TMP    - TEMPERATURE IN FAHRENHEIT
  DWPT   - DEWPOINT IN FAHRENHEIT
  RH     - RELATIVE HUMIDITY IN PERCENT
  WIND   - DIRECTION AND SPEED IN MPH
  PRES   - MEAN SEA LEVEL PRESSURE IN INCHES OF HG
  WCI    - WIND CHILL INDEX
  VSB    - VISIBILITY IN MILES
  HX     - HEAT INDEX
  TC     - TEMPERATURE IN CELSIUS
  VRB    - VARIABLE WIND DIRECTION
  N/A    - NOT AVAILABLE


USA.gov is the U.S. government's official web portal to all federal, state and local government web resources and services.